Year,Month,Day,Hour,Minute,Value (Times are PST for temperature in C)
2017,08,05,00,00,19.60
2017,08,05,00,01,19.50
2017,08,05,00,02,19.50
2017,08,05,00,03,19.40
2017,08,05,00,04,19.40
2017,08,05,00,05,19.40
2017,08,05,00,06,19.40
2017,08,05,00,07,19.30
2017,08,05,00,08,19.30
2017,08,05,00,09,19.30
2017,08,05,00,10,19.30
2017,08,05,00,11,19.30
2017,08,05,00,12,19.30
2017,08,05,00,13,19.30
2017,08,05,00,14,19.30
2017,08,05,00,15,19.20
2017,08,05,00,16,19.20
2017,08,05,00,17,19.20
2017,08,05,00,18,19.20
2017,08,05,00,19,19.20
2017,08,05,00,20,19.20
2017,08,05,00,21,19.20
2017,08,05,00,22,19.20
2017,08,05,00,23,19.20
2017,08,05,00,24,19.20
2017,08,05,00,25,19.20
2017,08,05,00,26,19.30
2017,08,05,00,27,19.30
2017,08,05,00,28,19.30
2017,08,05,00,29,19.30
2017,08,05,00,30,19.30
2017,08,05,00,31,19.30
2017,08,05,00,32,19.30
2017,08,05,00,33,19.30
2017,08,05,00,34,19.30
2017,08,05,00,35,19.30
2017,08,05,00,36,19.30
2017,08,05,00,37,19.30
2017,08,05,00,38,19.40
2017,08,05,00,39,19.40
2017,08,05,00,40,19.40
2017,08,05,00,41,19.40
2017,08,05,00,42,19.40
2017,08,05,00,43,19.50
2017,08,05,00,44,19.50
2017,08,05,00,45,19.60
2017,08,05,00,46,19.60
2017,08,05,00,47,19.70
2017,08,05,00,48,19.70
2017,08,05,00,49,19.70
2017,08,05,00,50,19.80
2017,08,05,00,51,19.80
2017,08,05,00,52,19.80
2017,08,05,00,53,19.80
2017,08,05,00,54,19.80
2017,08,05,00,55,19.80
2017,08,05,00,56,19.80
2017,08,05,00,57,19.70
2017,08,05,00,58,19.70
2017,08,05,00,59,19.70
2017,08,05,01,00,19.60
2017,08,05,01,01,19.60
2017,08,05,01,02,19.60
2017,08,05,01,03,19.60
2017,08,05,01,04,19.50
2017,08,05,01,05,19.50
2017,08,05,01,06,19.40
2017,08,05,01,07,19.40
2017,08,05,01,08,19.30
2017,08,05,01,09,19.30
2017,08,05,01,10,19.20
2017,08,05,01,11,19.20
2017,08,05,01,12,19.10
2017,08,05,01,13,19.10
2017,08,05,01,14,19.10
2017,08,05,01,15,19.00
2017,08,05,01,16,19.00
2017,08,05,01,17,18.90
2017,08,05,01,18,18.90
2017,08,05,01,19,18.90
2017,08,05,01,20,18.80
2017,08,05,01,21,18.80
2017,08,05,01,22,18.80
2017,08,05,01,23,18.80
2017,08,05,01,24,18.80
2017,08,05,01,25,18.70
2017,08,05,01,26,18.70
2017,08,05,01,27,18.70
2017,08,05,01,28,18.70
2017,08,05,01,29,18.70
2017,08,05,01,30,18.70
2017,08,05,01,31,18.70
2017,08,05,01,32,18.80
2017,08,05,01,33,18.80
2017,08,05,01,34,18.80
2017,08,05,01,35,18.80
2017,08,05,01,36,18.80
2017,08,05,01,37,18.80
2017,08,05,01,38,18.80
2017,08,05,01,39,18.80
2017,08,05,01,40,18.80
2017,08,05,01,41,18.80
2017,08,05,01,42,18.80
2017,08,05,01,43,18.70
2017,08,05,01,44,18.70
2017,08,05,01,45,18.70
2017,08,05,01,46,18.80
2017,08,05,01,47,18.70
2017,08,05,01,48,18.70
2017,08,05,01,49,18.80
2017,08,05,01,50,18.70
2017,08,05,01,51,18.70
2017,08,05,01,52,18.70
2017,08,05,01,53,18.70
2017,08,05,01,54,18.70
2017,08,05,01,55,18.70
2017,08,05,01,56,18.70
2017,08,05,01,57,18.70
2017,08,05,01,58,18.70
2017,08,05,01,59,18.70
2017,08,05,02,00,18.70
2017,08,05,02,01,18.70
2017,08,05,02,02,18.60
2017,08,05,02,03,18.60
2017,08,05,02,04,18.60
2017,08,05,02,05,18.60
2017,08,05,02,06,18.50
2017,08,05,02,07,18.50
2017,08,05,02,08,18.50
2017,08,05,02,09,18.40
2017,08,05,02,10,18.40
2017,08,05,02,11,18.40
2017,08,05,02,12,18.50
2017,08,05,02,13,18.50
2017,08,05,02,14,18.50
2017,08,05,02,15,18.50
2017,08,05,02,16,18.50
2017,08,05,02,17,18.50
2017,08,05,02,18,18.50
2017,08,05,02,19,18.50
2017,08,05,02,20,18.50
2017,08,05,02,21,18.50
2017,08,05,02,22,18.50
2017,08,05,02,23,18.50
2017,08,05,02,24,18.50
2017,08,05,02,25,18.50
2017,08,05,02,26,18.50
2017,08,05,02,27,18.50
2017,08,05,02,28,18.50
2017,08,05,02,29,18.50
2017,08,05,02,30,18.60
2017,08,05,02,31,18.60
2017,08,05,02,32,18.60
2017,08,05,02,33,18.70
2017,08,05,02,34,18.70
2017,08,05,02,35,18.70
2017,08,05,02,36,18.70
2017,08,05,02,37,18.80
2017,08,05,02,38,18.80
2017,08,05,02,39,18.80
2017,08,05,02,40,18.80
2017,08,05,02,41,18.80
2017,08,05,02,42,18.80
2017,08,05,02,43,18.70
2017,08,05,02,44,18.70
2017,08,05,02,45,18.70
2017,08,05,02,46,18.70
2017,08,05,02,47,18.60
2017,08,05,02,48,18.60
2017,08,05,02,49,18.60
2017,08,05,02,50,18.50
2017,08,05,02,51,18.50
2017,08,05,02,52,18.40
2017,08,05,02,53,18.40
2017,08,05,02,54,18.40
2017,08,05,02,55,18.30
2017,08,05,02,56,18.30
2017,08,05,02,57,18.30
2017,08,05,02,58,18.20
2017,08,05,02,59,18.20
2017,08,05,03,00,18.20
2017,08,05,03,01,18.20
2017,08,05,03,02,18.10
2017,08,05,03,03,18.10
2017,08,05,03,04,18.10
2017,08,05,03,05,18.10
2017,08,05,03,06,18.10
2017,08,05,03,07,18.10
2017,08,05,03,08,18.00
2017,08,05,03,09,18.00
2017,08,05,03,10,18.00
2017,08,05,03,11,18.00
2017,08,05,03,12,18.00
2017,08,05,03,13,18.00
2017,08,05,03,14,18.00
2017,08,05,03,15,18.00
2017,08,05,03,16,18.00
2017,08,05,03,17,18.00
2017,08,05,03,18,18.00
2017,08,05,03,19,18.00
2017,08,05,03,20,18.00
2017,08,05,03,21,17.90
2017,08,05,03,22,17.90
2017,08,05,03,23,17.90
2017,08,05,03,24,17.90
2017,08,05,03,25,17.90
2017,08,05,03,26,17.80
2017,08,05,03,27,17.80
2017,08,05,03,28,17.80
2017,08,05,03,29,17.70
2017,08,05,03,30,17.70
2017,08,05,03,31,17.70
2017,08,05,03,32,17.70
2017,08,05,03,33,17.70
2017,08,05,03,34,17.70
2017,08,05,03,35,17.70
2017,08,05,03,36,17.70
2017,08,05,03,37,17.70
2017,08,05,03,38,17.70
2017,08,05,03,39,17.80
2017,08,05,03,40,17.80
2017,08,05,03,41,17.80
2017,08,05,03,42,17.80
2017,08,05,03,43,17.80
2017,08,05,03,44,17.80
2017,08,05,03,45,17.80
2017,08,05,03,46,17.80
2017,08,05,03,47,17.80
2017,08,05,03,48,17.80
2017,08,05,03,49,17.80
2017,08,05,03,50,17.80
2017,08,05,03,51,17.80
2017,08,05,03,52,17.80
2017,08,05,03,53,17.80
2017,08,05,03,54,17.80
2017,08,05,03,55,17.80
2017,08,05,03,56,17.70
2017,08,05,03,57,17.70
2017,08,05,03,58,17.70
2017,08,05,03,59,17.70
2017,08,05,04,00,17.70
2017,08,05,04,01,17.70
2017,08,05,04,02,17.70
2017,08,05,04,03,17.70
2017,08,05,04,04,17.70
2017,08,05,04,05,17.70
2017,08,05,04,06,17.70
2017,08,05,04,07,17.70
2017,08,05,04,08,17.70
2017,08,05,04,09,17.70
2017,08,05,04,10,17.60
2017,08,05,04,11,17.60
2017,08,05,04,12,17.60
2017,08,05,04,13,17.50
2017,08,05,04,14,17.50
2017,08,05,04,15,17.40
2017,08,05,04,16,17.40
2017,08,05,04,17,17.40
2017,08,05,04,18,17.40
2017,08,05,04,19,17.40
2017,08,05,04,20,17.40
2017,08,05,04,21,17.30
2017,08,05,04,22,17.30
2017,08,05,04,23,17.30
2017,08,05,04,24,17.30
2017,08,05,04,25,17.40
2017,08,05,04,26,17.40
2017,08,05,04,27,17.40
2017,08,05,04,28,17.40
2017,08,05,04,29,17.50
2017,08,05,04,30,17.50
2017,08,05,04,31,17.50
2017,08,05,04,32,17.50
2017,08,05,04,33,17.50
2017,08,05,04,34,17.50
2017,08,05,04,35,17.50
2017,08,05,04,36,17.50
2017,08,05,04,37,17.50
2017,08,05,04,38,17.40
2017,08,05,04,39,17.40
2017,08,05,04,40,17.40
2017,08,05,04,41,17.40
2017,08,05,04,42,17.30
2017,08,05,04,43,17.30
2017,08,05,04,44,17.30
2017,08,05,04,45,17.20
2017,08,05,04,46,17.20
2017,08,05,04,47,17.20
2017,08,05,04,48,17.10
2017,08,05,04,49,17.10
2017,08,05,04,50,17.10
2017,08,05,04,51,17.00
2017,08,05,04,52,16.90
2017,08,05,04,53,16.90
2017,08,05,04,54,16.80
2017,08,05,04,55,16.80
2017,08,05,04,56,16.80
2017,08,05,04,57,16.70
2017,08,05,04,58,16.70
2017,08,05,04,59,16.70
2017,08,05,05,00,16.70
2017,08,05,05,01,16.60
2017,08,05,05,02,16.60
2017,08,05,05,03,16.60
2017,08,05,05,04,16.50
2017,08,05,05,05,16.50
2017,08,05,05,06,16.50
2017,08,05,05,07,16.50
2017,08,05,05,08,16.60
2017,08,05,05,09,16.60
2017,08,05,05,10,16.60
2017,08,05,05,11,16.60
2017,08,05,05,12,16.60
2017,08,05,05,13,16.60
2017,08,05,05,14,16.50
2017,08,05,05,15,16.50
2017,08,05,05,16,16.50
2017,08,05,05,17,16.40
2017,08,05,05,18,16.40
2017,08,05,05,19,16.40
2017,08,05,05,20,16.40
2017,08,05,05,21,16.40
2017,08,05,05,22,16.40
2017,08,05,05,23,16.40
2017,08,05,05,24,16.40
2017,08,05,05,25,16.40
2017,08,05,05,26,16.30
2017,08,05,05,27,16.30
2017,08,05,05,28,16.30
2017,08,05,05,29,16.20
2017,08,05,05,30,16.20
2017,08,05,05,31,16.20
2017,08,05,05,32,16.10
2017,08,05,05,33,16.10
2017,08,05,05,34,16.10
2017,08,05,05,35,16.00
2017,08,05,05,36,16.00
2017,08,05,05,37,15.90
2017,08,05,05,38,15.90
2017,08,05,05,39,15.90
2017,08,05,05,40,15.90
2017,08,05,05,41,15.90
2017,08,05,05,42,15.80
2017,08,05,05,43,15.80
2017,08,05,05,44,15.80
2017,08,05,05,45,15.80
2017,08,05,05,46,15.70
2017,08,05,05,47,15.70
2017,08,05,05,48,15.70
2017,08,05,05,49,15.70
2017,08,05,05,50,15.70
2017,08,05,05,51,15.70
2017,08,05,05,52,15.70
2017,08,05,05,53,15.70
2017,08,05,05,54,15.70
2017,08,05,05,55,15.80
2017,08,05,05,56,15.70
2017,08,05,05,57,15.70
2017,08,05,05,58,15.80
2017,08,05,05,59,15.80
2017,08,05,06,00,15.80
2017,08,05,06,01,15.80
2017,08,05,06,02,15.80
2017,08,05,06,03,15.70
2017,08,05,06,04,15.70
2017,08,05,06,05,15.70
2017,08,05,06,06,15.70
2017,08,05,06,07,15.70
2017,08,05,06,08,15.70
2017,08,05,06,09,15.70
2017,08,05,06,10,15.70
2017,08,05,06,11,15.70
2017,08,05,06,12,15.70
2017,08,05,06,13,15.70
2017,08,05,06,14,15.70
2017,08,05,06,15,15.80
2017,08,05,06,16,15.70
2017,08,05,06,17,15.70
2017,08,05,06,18,15.70
2017,08,05,06,19,15.60
2017,08,05,06,20,15.60
2017,08,05,06,21,15.50
2017,08,05,06,22,15.40
2017,08,05,06,23,15.40
2017,08,05,06,24,15.30
2017,08,05,06,25,15.30
2017,08,05,06,26,15.20
2017,08,05,06,27,15.20
2017,08,05,06,28,15.20
2017,08,05,06,29,15.10
2017,08,05,06,30,15.10
2017,08,05,06,31,15.10
2017,08,05,06,32,15.10
2017,08,05,06,33,15.10
2017,08,05,06,34,15.10
2017,08,05,06,35,15.10
2017,08,05,06,36,15.10
2017,08,05,06,37,15.20
2017,08,05,06,38,15.30
2017,08,05,06,39,15.40
2017,08,05,06,40,15.50
2017,08,05,06,41,15.60
2017,08,05,06,42,15.60
2017,08,05,06,43,15.70
2017,08,05,06,44,15.70
2017,08,05,06,45,15.80
2017,08,05,06,46,15.80
2017,08,05,06,47,15.80
2017,08,05,06,48,15.80
2017,08,05,06,49,15.80
2017,08,05,06,50,15.80
2017,08,05,06,51,15.80
2017,08,05,06,52,15.70
2017,08,05,06,53,15.70
2017,08,05,06,54,15.70
2017,08,05,06,55,15.70
2017,08,05,06,56,15.70
2017,08,05,06,57,15.70
2017,08,05,06,58,15.70
2017,08,05,06,59,15.70
2017,08,05,07,00,15.70
2017,08,05,07,01,15.80
2017,08,05,07,02,15.80
2017,08,05,07,03,15.80
2017,08,05,07,04,15.90
2017,08,05,07,05,15.90
2017,08,05,07,06,16.00
2017,08,05,07,07,16.00
2017,08,05,07,08,16.10
2017,08,05,07,09,16.10
2017,08,05,07,10,16.10
2017,08,05,07,11,16.10
2017,08,05,07,12,16.10
2017,08,05,07,13,16.10
2017,08,05,07,14,16.10
2017,08,05,07,15,16.10
2017,08,05,07,16,16.10
2017,08,05,07,17,16.10
2017,08,05,07,18,16.10
2017,08,05,07,19,16.10
2017,08,05,07,20,16.20
2017,08,05,07,21,16.20
2017,08,05,07,22,16.20
2017,08,05,07,23,16.20
2017,08,05,07,24,16.20
2017,08,05,07,25,16.20
2017,08,05,07,26,16.20
2017,08,05,07,27,16.20
2017,08,05,07,28,16.20
2017,08,05,07,29,16.20
2017,08,05,07,30,16.20
2017,08,05,07,31,16.20
2017,08,05,07,32,16.20
2017,08,05,07,33,16.20
2017,08,05,07,34,16.20
2017,08,05,07,35,16.30
2017,08,05,07,36,16.30
2017,08,05,07,37,16.40
2017,08,05,07,38,16.40
2017,08,05,07,39,16.50
2017,08,05,07,40,16.50
2017,08,05,07,41,16.60
2017,08,05,07,42,16.60
2017,08,05,07,43,16.60
2017,08,05,07,44,16.60
2017,08,05,07,45,16.70
2017,08,05,07,46,16.70
2017,08,05,07,47,16.70
2017,08,05,07,48,16.70
2017,08,05,07,49,16.80
2017,08,05,07,50,16.90
2017,08,05,07,51,16.90
2017,08,05,07,52,17.00
2017,08,05,07,53,17.10
2017,08,05,07,54,17.10
2017,08,05,07,55,17.20
2017,08,05,07,56,17.20
2017,08,05,07,57,17.20
2017,08,05,07,58,17.20
2017,08,05,07,59,17.20
2017,08,05,08,00,17.30
2017,08,05,08,01,17.30
2017,08,05,08,02,17.30
2017,08,05,08,03,17.30
2017,08,05,08,04,17.30
2017,08,05,08,05,17.30
2017,08,05,08,06,17.30
2017,08,05,08,07,17.30
2017,08,05,08,08,17.30
2017,08,05,08,09,17.30
2017,08,05,08,10,17.40
2017,08,05,08,11,17.40
2017,08,05,08,12,17.40
2017,08,05,08,13,17.40
2017,08,05,08,14,17.50
2017,08,05,08,15,17.50
2017,08,05,08,16,17.50
2017,08,05,08,17,17.60
2017,08,05,08,18,17.60
2017,08,05,08,19,17.60
2017,08,05,08,20,17.70
2017,08,05,08,21,17.70
2017,08,05,08,22,17.70
2017,08,05,08,23,17.80
2017,08,05,08,24,17.90
2017,08,05,08,25,18.00
2017,08,05,08,26,18.00
2017,08,05,08,27,18.10
2017,08,05,08,28,18.20
2017,08,05,08,29,18.20
2017,08,05,08,30,18.30
2017,08,05,08,31,18.40
2017,08,05,08,32,18.50
2017,08,05,08,33,18.50
2017,08,05,08,34,18.60
2017,08,05,08,35,18.70
2017,08,05,08,36,18.80
2017,08,05,08,37,18.80
2017,08,05,08,38,18.90
2017,08,05,08,39,18.90
2017,08,05,08,40,19.00
2017,08,05,08,41,19.10
2017,08,05,08,42,19.20
2017,08,05,08,43,19.20
2017,08,05,08,44,19.30
2017,08,05,08,45,19.40
2017,08,05,08,46,19.40
2017,08,05,08,47,19.50
2017,08,05,08,48,19.60
2017,08,05,08,49,19.60
2017,08,05,08,50,19.70
2017,08,05,08,51,19.70
2017,08,05,08,52,19.80
2017,08,05,08,53,19.80
2017,08,05,08,54,19.80
2017,08,05,08,55,19.90
2017,08,05,08,56,19.90
2017,08,05,08,57,19.90
2017,08,05,08,58,20.00
2017,08,05,08,59,20.00
2017,08,05,09,00,20.10
2017,08,05,09,01,20.10
2017,08,05,09,02,20.10
2017,08,05,09,03,20.20
2017,08,05,09,04,20.20
2017,08,05,09,05,20.20
2017,08,05,09,06,20.30
2017,08,05,09,07,20.30
2017,08,05,09,08,20.30
2017,08,05,09,09,20.40
2017,08,05,09,10,20.40
2017,08,05,09,11,20.40
2017,08,05,09,12,20.50
2017,08,05,09,13,20.50
2017,08,05,09,14,20.50
2017,08,05,09,15,20.60
2017,08,05,09,16,20.60
2017,08,05,09,17,20.70
2017,08,05,09,18,20.70
2017,08,05,09,19,20.70
2017,08,05,09,20,20.70
2017,08,05,09,21,20.70
2017,08,05,09,22,20.70
2017,08,05,09,23,20.70
2017,08,05,09,24,20.70
2017,08,05,09,25,20.80
2017,08,05,09,26,20.80
2017,08,05,09,27,20.80
2017,08,05,09,28,20.80
2017,08,05,09,29,20.90
2017,08,05,09,30,20.90
2017,08,05,09,31,21.00
2017,08,05,09,32,21.00
2017,08,05,09,33,21.00
2017,08,05,09,34,21.10
2017,08,05,09,35,21.10
2017,08,05,09,36,21.10
2017,08,05,09,37,21.20
2017,08,05,09,38,21.20
2017,08,05,09,39,21.20
2017,08,05,09,40,21.20
2017,08,05,09,41,21.30
2017,08,05,09,42,21.30
2017,08,05,09,43,21.30
2017,08,05,09,44,21.40
2017,08,05,09,45,21.40
2017,08,05,09,46,21.40
2017,08,05,09,47,21.50
2017,08,05,09,48,21.50
2017,08,05,09,49,21.40
2017,08,05,09,50,21.40
2017,08,05,09,51,21.40
2017,08,05,09,52,21.40
2017,08,05,09,53,21.40
2017,08,05,09,54,21.40
2017,08,05,09,55,21.40
2017,08,05,09,56,21.50
2017,08,05,09,57,21.50
2017,08,05,09,58,21.60
2017,08,05,09,59,21.60
2017,08,05,10,00,21.60
2017,08,05,10,01,21.70
2017,08,05,10,02,21.70
2017,08,05,10,03,21.70
2017,08,05,10,04,21.80
2017,08,05,10,05,21.70
2017,08,05,10,06,21.70
2017,08,05,10,07,21.70
2017,08,05,10,08,21.70
2017,08,05,10,09,21.70
2017,08,05,10,10,21.70
2017,08,05,10,11,21.80
2017,08,05,10,12,21.80
2017,08,05,10,13,21.80
2017,08,05,10,14,21.90
2017,08,05,10,15,21.90
2017,08,05,10,16,22.00
2017,08,05,10,17,22.00
2017,08,05,10,18,22.10
2017,08,05,10,19,22.10
2017,08,05,10,20,22.10
2017,08,05,10,21,22.10
2017,08,05,10,22,22.10
2017,08,05,10,23,22.10
2017,08,05,10,24,22.00
2017,08,05,10,25,22.00
2017,08,05,10,26,22.10
2017,08,05,10,27,22.10
2017,08,05,10,28,22.10
2017,08,05,10,29,22.10
2017,08,05,10,30,22.10
2017,08,05,10,31,22.20
2017,08,05,10,32,22.20
2017,08,05,10,33,22.20
2017,08,05,10,34,22.20
2017,08,05,10,35,22.30
2017,08,05,10,36,22.30
2017,08,05,10,37,22.30
2017,08,05,10,38,22.30
2017,08,05,10,39,22.30
2017,08,05,10,40,22.30
2017,08,05,10,41,22.30
2017,08,05,10,42,22.30
2017,08,05,10,43,22.30
2017,08,05,10,44,22.40
2017,08,05,10,45,22.40
2017,08,05,10,46,22.40
2017,08,05,10,47,22.40
2017,08,05,10,48,22.40
2017,08,05,10,49,22.40
2017,08,05,10,50,22.50
2017,08,05,10,51,22.50
2017,08,05,10,52,22.50
2017,08,05,10,53,22.50
2017,08,05,10,54,22.50
2017,08,05,10,55,22.50
2017,08,05,10,56,22.40
2017,08,05,10,57,22.50
2017,08,05,10,58,22.50
2017,08,05,10,59,22.50
2017,08,05,11,00,22.60
2017,08,05,11,01,22.60
2017,08,05,11,02,22.60
2017,08,05,11,03,22.60
2017,08,05,11,04,22.60
2017,08,05,11,05,22.70
2017,08,05,11,06,22.70
2017,08,05,11,07,22.70
2017,08,05,11,08,22.70
2017,08,05,11,09,22.80
2017,08,05,11,10,22.80
2017,08,05,11,11,22.90
2017,08,05,11,12,22.90
2017,08,05,11,13,22.90
2017,08,05,11,14,23.00
2017,08,05,11,15,23.00
2017,08,05,11,16,23.00
2017,08,05,11,17,23.00
2017,08,05,11,18,23.00
2017,08,05,11,19,23.00
2017,08,05,11,20,23.10
2017,08,05,11,21,23.10
2017,08,05,11,22,23.10
2017,08,05,11,23,23.20
2017,08,05,11,24,23.20
2017,08,05,11,25,23.30
2017,08,05,11,26,23.30
2017,08,05,11,27,23.40
2017,08,05,11,28,23.40
2017,08,05,11,29,23.50
2017,08,05,11,30,23.50
2017,08,05,11,31,23.60
2017,08,05,11,32,23.60
2017,08,05,11,33,23.60
2017,08,05,11,34,23.60
2017,08,05,11,35,23.60
2017,08,05,11,36,23.50
2017,08,05,11,37,23.50
2017,08,05,11,38,23.50
2017,08,05,11,39,23.50
2017,08,05,11,40,23.60
2017,08,05,11,41,23.60
2017,08,05,11,42,23.60
2017,08,05,11,43,23.60
2017,08,05,11,44,23.60
2017,08,05,11,45,23.60
2017,08,05,11,46,23.60
2017,08,05,11,47,23.60
2017,08,05,11,48,23.60
2017,08,05,11,49,23.60
2017,08,05,11,50,23.60
2017,08,05,11,51,23.60
2017,08,05,11,52,23.60
2017,08,05,11,53,23.60
2017,08,05,11,54,23.60
2017,08,05,11,55,23.60
2017,08,05,11,56,23.60
2017,08,05,11,57,23.70
2017,08,05,11,58,23.70
2017,08,05,11,59,23.80
2017,08,05,12,00,23.80
2017,08,05,12,01,23.90
2017,08,05,12,02,23.90
2017,08,05,12,03,24.00
2017,08,05,12,04,24.00
2017,08,05,12,05,24.10
2017,08,05,12,06,24.10
2017,08,05,12,07,24.20
2017,08,05,12,08,24.20
2017,08,05,12,09,24.20
2017,08,05,12,10,24.30
2017,08,05,12,11,24.30
2017,08,05,12,12,24.30
2017,08,05,12,13,24.30
2017,08,05,12,14,24.30
2017,08,05,12,15,24.30
2017,08,05,12,16,24.30
2017,08,05,12,17,24.30
2017,08,05,12,18,24.30
2017,08,05,12,19,24.30
2017,08,05,12,20,24.40
2017,08,05,12,21,24.40
2017,08,05,12,22,24.40
2017,08,05,12,23,24.50
2017,08,05,12,24,24.50
2017,08,05,12,25,24.60
2017,08,05,12,26,24.70
2017,08,05,12,27,24.70
2017,08,05,12,28,24.70
2017,08,05,12,29,24.70
2017,08,05,12,30,24.70
2017,08,05,12,31,24.70
2017,08,05,12,32,24.70
2017,08,05,12,33,24.70
2017,08,05,12,34,24.70
2017,08,05,12,35,24.70
2017,08,05,12,36,24.70
2017,08,05,12,37,24.60
2017,08,05,12,38,24.60
2017,08,05,12,39,24.70
2017,08,05,12,40,24.70
2017,08,05,12,41,24.80
2017,08,05,12,42,24.80
2017,08,05,12,43,24.90
2017,08,05,12,44,24.90
2017,08,05,12,45,25.00
2017,08,05,12,46,25.10
2017,08,05,12,47,25.20
2017,08,05,12,48,25.20
2017,08,05,12,49,25.30
2017,08,05,12,50,25.30
2017,08,05,12,51,25.40
2017,08,05,12,52,25.40
2017,08,05,12,53,25.40
2017,08,05,12,54,25.40
2017,08,05,12,55,25.50
2017,08,05,12,56,25.50
2017,08,05,12,57,25.50
2017,08,05,12,58,25.50
2017,08,05,12,59,25.60
2017,08,05,13,00,25.60
2017,08,05,13,01,25.60
2017,08,05,13,02,25.60
2017,08,05,13,03,25.70
2017,08,05,13,04,25.70
2017,08,05,13,05,25.70
2017,08,05,13,06,25.60
2017,08,05,13,07,25.60
2017,08,05,13,08,25.60
2017,08,05,13,09,25.60
2017,08,05,13,10,25.60
2017,08,05,13,11,25.60
2017,08,05,13,12,25.70
2017,08,05,13,13,25.70
2017,08,05,13,14,25.70
2017,08,05,13,15,25.80
2017,08,05,13,16,25.80
2017,08,05,13,17,25.80
2017,08,05,13,18,25.70
2017,08,05,13,19,25.70
2017,08,05,13,20,25.70
2017,08,05,13,21,25.70
2017,08,05,13,22,25.70
2017,08,05,13,23,25.70
2017,08,05,13,24,25.70
2017,08,05,13,25,25.80
2017,08,05,13,26,25.80
2017,08,05,13,27,25.80
2017,08,05,13,28,25.80
2017,08,05,13,29,25.80
2017,08,05,13,30,25.80
2017,08,05,13,31,25.90
2017,08,05,13,32,25.90
2017,08,05,13,33,25.90
2017,08,05,13,34,25.90
2017,08,05,13,35,25.90
2017,08,05,13,36,25.90
2017,08,05,13,37,25.90
2017,08,05,13,38,26.00
2017,08,05,13,39,26.10
2017,08,05,13,40,26.10
2017,08,05,13,41,26.10
2017,08,05,13,42,26.10
2017,08,05,13,43,26.10
2017,08,05,13,44,26.10
2017,08,05,13,45,26.00
2017,08,05,13,46,26.00
2017,08,05,13,47,25.90
2017,08,05,13,48,25.90
2017,08,05,13,49,26.00
2017,08,05,13,50,26.00
2017,08,05,13,51,26.10
2017,08,05,13,52,26.10
2017,08,05,13,53,26.10
2017,08,05,13,54,26.10
2017,08,05,13,55,26.10
2017,08,05,13,56,26.10
2017,08,05,13,57,26.10
2017,08,05,13,58,26.00
2017,08,05,13,59,26.00
2017,08,05,14,00,26.00
2017,08,05,14,01,26.00
2017,08,05,14,02,25.90
2017,08,05,14,03,25.90
2017,08,05,14,04,25.90
2017,08,05,14,05,25.90
2017,08,05,14,06,25.90
2017,08,05,14,07,25.90
2017,08,05,14,08,25.90
2017,08,05,14,09,25.90
2017,08,05,14,10,25.90
2017,08,05,14,11,25.90
2017,08,05,14,12,25.90
2017,08,05,14,13,25.90
2017,08,05,14,14,25.80
2017,08,05,14,15,25.80
2017,08,05,14,16,25.90
2017,08,05,14,17,25.90
2017,08,05,14,18,25.90
2017,08,05,14,19,26.00
2017,08,05,14,20,26.10
2017,08,05,14,21,26.10
2017,08,05,14,22,26.20
2017,08,05,14,23,26.30
2017,08,05,14,24,26.40
2017,08,05,14,25,26.40
2017,08,05,14,26,26.50
2017,08,05,14,27,26.60
2017,08,05,14,28,26.60
2017,08,05,14,29,26.50
2017,08,05,14,30,26.40
2017,08,05,14,31,26.40
2017,08,05,14,32,26.40
2017,08,05,14,33,26.40
2017,08,05,14,34,26.40
2017,08,05,14,35,26.30
2017,08,05,14,36,26.30
2017,08,05,14,37,26.40
2017,08,05,14,38,26.40
2017,08,05,14,39,26.40
2017,08,05,14,40,26.40
2017,08,05,14,41,26.40
2017,08,05,14,42,26.40
2017,08,05,14,43,26.40
2017,08,05,14,44,26.50
2017,08,05,14,45,26.60
2017,08,05,14,46,26.60
2017,08,05,14,47,26.70
2017,08,05,14,48,26.70
2017,08,05,14,49,26.70
2017,08,05,14,50,26.70
2017,08,05,14,51,26.70
2017,08,05,14,52,26.70
2017,08,05,14,53,26.70
2017,08,05,14,54,26.70
2017,08,05,14,55,26.70
2017,08,05,14,56,26.60
2017,08,05,14,57,26.60
2017,08,05,14,58,26.60
2017,08,05,14,59,26.70
2017,08,05,15,00,26.70
2017,08,05,15,01,26.70
2017,08,05,15,02,26.80
2017,08,05,15,03,26.80
2017,08,05,15,04,26.80
2017,08,05,15,05,26.90
2017,08,05,15,06,26.90
2017,08,05,15,07,27.00
2017,08,05,15,08,27.00
2017,08,05,15,09,27.00
2017,08,05,15,10,27.00
2017,08,05,15,11,27.00
2017,08,05,15,12,27.00
2017,08,05,15,13,27.00
2017,08,05,15,14,26.90
2017,08,05,15,15,27.00
2017,08,05,15,16,27.00
2017,08,05,15,17,27.00
2017,08,05,15,18,27.00
2017,08,05,15,19,27.00
2017,08,05,15,20,27.00
2017,08,05,15,21,27.10
2017,08,05,15,22,27.10
2017,08,05,15,23,27.20
2017,08,05,15,24,27.20
2017,08,05,15,25,27.30
2017,08,05,15,26,27.30
2017,08,05,15,27,27.30
2017,08,05,15,28,27.30
2017,08,05,15,29,27.20
2017,08,05,15,30,27.20
2017,08,05,15,31,27.10
2017,08,05,15,32,27.10
2017,08,05,15,33,27.10
2017,08,05,15,34,27.10
2017,08,05,15,35,27.10
2017,08,05,15,36,27.10
2017,08,05,15,37,27.00
2017,08,05,15,38,27.00
2017,08,05,15,39,27.00
2017,08,05,15,40,27.10
2017,08,05,15,41,27.10
2017,08,05,15,42,27.20
2017,08,05,15,43,27.20
2017,08,05,15,44,27.20
2017,08,05,15,45,27.20
2017,08,05,15,46,27.20
2017,08,05,15,47,27.20
2017,08,05,15,48,27.20
2017,08,05,15,49,27.20
2017,08,05,15,50,27.20
2017,08,05,15,51,27.20
2017,08,05,15,52,27.20
2017,08,05,15,53,27.20
2017,08,05,15,54,27.20
2017,08,05,15,55,27.20
2017,08,05,15,56,27.10
2017,08,05,15,57,27.20
2017,08,05,15,58,27.20
2017,08,05,15,59,27.20
2017,08,05,16,00,27.20
2017,08,05,16,01,27.20
2017,08,05,16,02,27.20
2017,08,05,16,03,27.20
2017,08,05,16,04,27.20
2017,08,05,16,05,27.20
2017,08,05,16,06,27.30
2017,08,05,16,07,27.30
2017,08,05,16,08,27.30
2017,08,05,16,09,27.30
2017,08,05,16,10,27.30
2017,08,05,16,11,27.30
2017,08,05,16,12,27.20
2017,08,05,16,13,27.20
2017,08,05,16,14,27.10
2017,08,05,16,15,27.10
2017,08,05,16,16,27.10
2017,08,05,16,17,27.00
2017,08,05,16,18,27.00
2017,08,05,16,19,27.00
2017,08,05,16,20,26.90
2017,08,05,16,21,26.90
2017,08,05,16,22,26.90
2017,08,05,16,23,26.90
2017,08,05,16,24,26.90
2017,08,05,16,25,26.90
2017,08,05,16,26,26.90
2017,08,05,16,27,26.90
2017,08,05,16,28,26.90
2017,08,05,16,29,27.00
2017,08,05,16,30,27.00
2017,08,05,16,31,27.00
2017,08,05,16,32,27.00
2017,08,05,16,33,27.10
2017,08,05,16,34,27.10
2017,08,05,16,35,27.10
2017,08,05,16,36,27.10
2017,08,05,16,37,27.20
2017,08,05,16,38,27.20
2017,08,05,16,39,27.20
2017,08,05,16,40,27.10
2017,08,05,16,41,27.10
2017,08,05,16,42,27.10
2017,08,05,16,43,27.10
2017,08,05,16,44,27.00
2017,08,05,16,45,27.00
2017,08,05,16,46,27.00
2017,08,05,16,47,27.00
2017,08,05,16,48,27.00
2017,08,05,16,49,27.00
2017,08,05,16,50,27.00
2017,08,05,16,51,27.00
2017,08,05,16,52,27.00
2017,08,05,16,53,27.00
2017,08,05,16,54,27.00
2017,08,05,16,55,27.10
2017,08,05,16,56,27.10
2017,08,05,16,57,27.10
2017,08,05,16,58,27.10
2017,08,05,16,59,27.10
2017,08,05,17,00,27.10
2017,08,05,17,01,27.20
2017,08,05,17,02,27.30
2017,08,05,17,03,27.30
2017,08,05,17,04,27.30
2017,08,05,17,05,27.30
2017,08,05,17,06,27.30
2017,08,05,17,07,27.30
2017,08,05,17,08,27.20
2017,08,05,17,09,27.20
2017,08,05,17,10,27.10
2017,08,05,17,11,27.00
2017,08,05,17,12,27.00
2017,08,05,17,13,26.90
2017,08,05,17,14,26.80
2017,08,05,17,15,26.80
2017,08,05,17,16,26.70
2017,08,05,17,17,26.70
2017,08,05,17,18,26.70
2017,08,05,17,19,26.70